Volver al catálogo

STARLINK-37854

ActivoComunicacionesSSO
NORAD 69494·PAYLOAD·🇺🇸 United States

Lanzado Jun 11, 2026 desde Vandenberg Space Force Base

Loading…

Próximos Pases (próximas 24 horas)

TLE

ActualizadoSource: CelesTrak SupGP

Época: Sep 14, 2026, 22:45 UTC

1 69494C 26131S   26257.94840278  .00070437  00000+0  21831-2 0  2573
2 69494  97.2837 278.9311 0001754  92.5209 107.8631 15.33453449    13

Sigue STARLINK-37854 en tiempo real con AllMySat

Download on the App Store